Showing default

VRSS-2, 42954

Orbit data source: Space-Track

VRSS-2, 42954 is a payload satellite owned by ABAE (VE) in SSO that was launched on Mon, 09 Oct 2017 UTC via a CHANG ZHENG 2D launch vehicle from the Jiuquan Satellite Launch Center, China (JSC). Payloads include a variety of satellites, spacecraft, and rockets equipped with specific instruments for various scientific and technological missions. These include communications satellites like Starlink; space stations such as the ISS; scientific satellites like the Hubble; Earth observation satellites from companies like Planet Labs, Umbra, and HawkEye 360; GPS; miniature CubeSats for education and research; and military/defense satellites.

Loading next visibility...
VRSS-2 details
Identifier
42954, 2017-060A
Orbit
SSO
Last TLE update6 hours ago
Origin
Flag of VEABAE (VE / VENZ)
ManufacturerDFH
MissionOperational Civil Imaging
Bus & MotorCAST-2000, AOCS
Mass942 kg wet, ~900 kg dry
Launch date (UTC)
2017-10-09 (7 years ago)
Launch vehicle
CHANG ZHENG 2D
Launch site
Jiuquan Satellite Launch Center, China (JSC)
Object type
Payload
Rocket body
Debris
Shape & HBRBox + 2 Pan, 7.9 m
Radar Cross Section8.358 m², Large (>1 m²)

Expand to show TLE details & history

TLE from 6 hours ago
0 VRSS-2
1 42954U 17060A   24361.27945932  .00002673  00000-0  36229-3 0  9998
2 42954  97.7293  50.3351 0018844  58.9358 301.3701 14.79605966388864
Epoch: 2024-12-26T06:42Z
Definitive object data (Epoch: 2024-12-26T06:42:25.285Z)
Latitude
Longitude-145.53139°
Altitude626.736 km
Speed7.549 km/s
True Right ascension03h 21m 20s
True Declination0° 00' 00"
Sunlit
Object was in full shadow at TLE epoch
Visualization TLE readout
Latitude-33.80128°
Longitude-140.09224°
Altitude643.782 km
Speed7.534 km/s
Apparent Right ascension02h 13m 02s
Apparent Declination-39° 12' 28"
Sunlit
Object is in daylight
Visualization observer readout
Local Sidereal Time12:24:22
Azimuth263.152° W
Elevation-69.126°
Doppler factor1
Orbital elements
Apogee altitude640.804 km
Perigee altitude614.4 km
Semi-major axis7,005.739 km
Eccentricity0.0018844
Inclination97.7293°
RAAN50.3351°
Arg. of periapsis58.9358°
True anomaly301.1855°
Mean anomaly301.3701°
Eccentric anomaly301.27782°
Mean motion3.70137 °/min
BSTAR0.00036229
Orbital period97.26 mins
Loading maneuver chart data...
Loading historical data...
Loading historical data...
Loading historical data...
Loading historical data...
Loading historical data...
Loading historical data...
Loading historical data...
Other satellites on launch #60 in the year 2017 (2017-10-09 UTC)

VRSS-2 Visibility forecast

Observer location: undefined°, undefined

Span
Click to sort rows by Start time (UTC) header in descending order
Start Az.
Max El. time (UTC)
Max El. Az.
Max El.
End time (UTC)
End Az.
5 mins2024-12-26 15:24:45.716Z51.783° ENE2024-12-26 15:27:45.716Z100.191° ESE18.501°2024-12-26 15:29:45.716Z131.909° SE
5 mins2024-12-26 17:01:45.716Z337.045° NNW2024-12-26 17:03:45.716Z290.859° WNW29.429°2024-12-26 17:06:45.716Z231.166° WSW
6 mins2024-12-27 03:56:45.716Z199.225° SSW2024-12-27 03:58:45.716Z249.792° W35.732°2024-12-27 04:02:45.716Z333.633° NNW
|